This demonstration page uses our WeatherBlox Daily Observations layout. Learn more.

Left ArrowRight Arrow

Hourly Observations for December 1, 2020

Temp ( °F °C ) Dew Point ( °F °C ) Humidity (%) Winds ( mph kmh ) Pressure ( in mb ) Visibility ( mi km ) Precip ( " mm )
12:56 am 00:56 Clear 23 -5 15 -9.4 72 72 Calm 29.98 1015 10 16 0.00 0.00
1:56 am 01:56 Clear 20 -6.7 14 -10 78 78 SE 5 7 29.96 1015 10 16 0.00 0.00
2:56 am 02:56 Clear 22 -5.6 15 -9.4 75 75 S 3 6 29.96 1015 10 16 0.00 0.00
3:56 am 03:56 Clear 22 -5.6 15 -9.4 75 75 WSW 7 11 29.96 1015 10 16 0.00 0.00
4:56 am 04:56 Clear 17 -8.3 12 -11.1 80 80 S 5 7 29.97 1015 10 16 0.00 0.00
5:56 am 05:56 Clear 15 -9.4 11 -11.7 84 84 SSE 5 7 29.98 1015 10 16 0.00 0.00
6:56 am 06:56 Clear 15 -9.4 11 -11.7 84 84 S 6 9 29.98 1015 10 16 0.00 0.00
7:56 am 07:56 Sunny 17 -8.3 13 -10.6 84 84 Calm 29.99 1016 10 16 0.00 0.00
8:56 am 08:56 Sunny 24 -4.4 17 -8.3 75 75 W 10 17 29.99 1016 10 16 0.00 0.00
9:56 am 09:56 Sunny 33 0.6 19 -7.2 56 56 W 5 7 29.99 1016 10 16 0.00 0.00
10:56 am 10:56 Sunny 42 5.6 21 -6.1 43 43 N 7 11 29.99 1016 10 16 0.00 0.00
11:56 am 11:56 Sunny 47 8.3 16 -8.9 29 29 N 14 22 29.97 1015 10 16 0.00 0.00
12:56 pm 12:56 Sunny 48 8.9 17 -8.3 29 29 NNW 13 20 29.96 1015 10 16 0.00 0.00
1:56 pm 13:56 Sunny 48 8.9 17 -8.3 29 29 N 16 26 29.98 1015 10 16 0.00 0.00
2:56 pm 14:56 Sunny 48 8.9 19 -7.2 32 32 N 14 22 29.99 1016 10 16 0.00 0.00
3:56 pm 15:56 Sunny 46 7.8 19 -7.2 34 34 N 14 22 30.01 1016 10 16 0.00 0.00
4:56 pm 16:56 Sunny 44 6.7 18 -7.8 35 35 N 14 22 30.05 1018 10 16 0.00 0.00
5:56 pm 17:56 Clear 39 3.9 18 -7.8 43 43 N 10 17 30.09 1019 10 16 0.00 0.00
6:56 pm 18:56 Clear 35 1.7 18 -7.8 50 50 N 8 13 30.14 1021 10 16 0.00 0.00
7:56 pm 19:56 Clear 35 1.7 19 -7.2 52 52 N 9 15 30.16 1021 10 16 0.00 0.00
8:56 pm 20:56 Clear 33 0.6 19 -7.2 56 56 N 13 20 30.18 1022 10 16 0.00 0.00
9:56 pm 21:56 Clear 32 0 21 -6.1 64 64 NNW 10 17 30.19 1022 10 16 0.00 0.00
10:56 pm 22:56 Clear 33 0.6 20 -6.7 58 58 N 13 20 30.19 1023 10 16 0.00 0.00
11:56 pm 23:56 Clear 32 0 24 -4.4 73 73 N 12 19 30.21 1023 10 16 0.00 0.00

Powered by AerisWeather